Wind_Speed
11 9 9 11 6 8 15 19 20 12 2 4 9 2 6 12 11 5 18 25 23 21 16 13 11 10 10 9 9 9 10 12 12 12 11 11 12 12 13 15 17 16 17 17 17 15 16 15 16
10 12 15 6 8 12 14 24 19 5 11 9 4 3 3 2 14 11 14 21 21 18 17 14 12 8 8 8 8 8 8 9 11 12 12 11 12 9 7 8 9 13 16 17 17 16 16 19 18
13 13 7 6 12 15 17 24 15 15 13 7 3 6 4 4 12 15 26 21 21 17 15 14 12 8 6 7 8 7 7 7 8 10 11 10 11 12 9 11 2 4 7 16 17 18 19 20 21
8 8 6 10 20 19 24 21 10 8 10 6 8 6 5 13 9 16 22 19 21 18 16 13 11 9 6 6 8 7 7 9 9 8 10 12 16 13 16 24 13 8 18 9 15 18 21 20 21
17 7 10 15 21 22 22 24 8 11 2 9 10 11 7 13 11 24 23 19 19 20 18 13 12 10 8 7 7 7 8 10 9 8 11 17 16 13 10 20 27 11 4 10 11 16 21 21 21
8 9 13 15 21 24 22 21 7 6 8 7 8 14 7 18 16 12 23 20 17 20 15 14 14 12 9 9 9 9 9 10 11 11 14 18 15 13 19 21 21 22 21 15 17 19 22 22 22
15 13 19 21 20 22 23 10 4 10 13 14 9 13 10 13 19 17 19 22 16 15 12 12 15 14 11 10 12 11 10 10 12 13 16 19 18 17 19 21 21 23 18 17 19 19 22 22 23
12 13 25 21 19 25 20 22 8 10 14 13 9 11 8 14 19 17 17 22 18 15 11 12 13 15 14 13 14 13 12 11 12 14 15 18 23 14 13 23 20 19 20 18 15 16 22 23 22
18 15 18 24 24 22 20 22 7 4 13 19 5 6 11 14 11 15 17 16 21 19 18 15 15 14 15 13 16 16 14 13 13 14 16 18 23 18 22 16 20 21 18 18 15 16 18 21 21
17 16 25 20 23 22 22 20 8 7 17 16 10 8 7 11 14 13 13 15 18 21 22 21 20 17 16 13 13 18 18 17 16 15 19 19 18 16 16 15 20 21 20 17 18 17 17 19 21
20 24 21 24 26 25 24 24 13 13 15 11 17 11 10 9 11 13 19 24 23 23 24 24 24 22 20 16 15 17 17 17 16 16 17 21 18 15 16 19 20 19 20 18 17 18 17 18 20
23 26 23 24 24 24 24 23 19 17 20 17 14 11 17 18 14 10 12 15 27 28 28 26 26 25 24 21 19 17 20 19 20 21 20 19 19 19 20 22 22 22 22 19 20 20 20 21 21
22 24 25 25 22 24 24 24 22 23 17 19 16 17 14 7 8 10 16 18 19 27 34 32 28 28 27 24 21 19 21 21 21 22 25 23 21 19 21 23 22 24 22 21 21 20 21 22 21
21 25 25 24 24 22 24 24 20 25 20 21 20 19 17 15 11 12 18 19 15 15 30 35 33 30 29 28 23 24 21 22 20 19 23 26 23 19 24 23 23 22 22 26 23 22 25 24 22
20 22 23 24 21 25 22 25 27 22 22 23 23 22 21 21 17 17 25 22 23 22 21 34 34 31 30 32 27 24 21 21 24 22 19 22 25 24 24 24 21 22 21 26 24 21 19 22 22
22 23 20 19 22 24 22 30 24 22 22 26 25 22 23 22 24 29 33 32 29 28 31 33 33 34 32 31 32 25 21 23 24 24 22 22 25 25 24 23 23 22 26 26 28 25 23 18 19
18 19 24 28 22 26 24 34 24 22 20 22 23 19 23 21 23 27 29 28 29 28 24 33 34 35 35 30 29 29 25 23 22 24 26 23 24 25 23 22 23 25 27 29 30 27 27 25 22
19 17 21 21 20 25 22 27 22 13 21 19 19 13 12 15 16 21 26 30 27 25 26 34 34 34 36 30 27 26 24 27 22 25 24 23 24 23 25 23 24 25 28 28 30 30 29 29 26
23 24 28 27 25 22 24 23 23 18 18 20 19 12 15 14 12 18 20 22 17 18 23 21 27 31 32 30 28 26 25 26 21 24 23 23 24 25 25 25 26 26 31 31 33 32 33 28 30
27 28 29 28 23 20 21 24 26 25 18 18 17 17 18 17 14 8 9 14 18 21 21 20 19 27 31 30 28 25 24 22 25 24 25 23 23 26 26 25 28 28 29 31 32 32 25 27 25
26 24 29 28 25 18 18 23 26 28 28 21 22 21 22 16 17 12 9 14 19 19 18 19 17 20 29 27 26 23 23 16 24 25 25 26 25 24 26 24 27 29 31 32 35 35 31 27 29
28 28 30 27 22 17 17 18 20 21 24 26 26 25 24 21 18 13 16 14 20 23 23 20 19 21 26 30 28 27 23 18 19 21 23 24 26 26 25 27 25 31 31 32 35 38 38 31 25
30 29 25 24 25 20 23 14 20 20 24 26 25 27 25 24 15 15 15 11 6 12 27 25 23 22 25 32 29 28 23 23 19 19 24 24 23 25 28 30 30 30 30 31 34 33 36 36 30
25 28 28 25 17 18 20 19 15 17 23 23 14 14 15 7 6 4 3 3 4 4 20 21 18 20 30 30 27 30 28 24 23 24 24 26 26 25 26 27 28 31 31 32 35 36 39 37 34
23 22 15 17 15 14 22 19 15 16 23 26 10 13 10 9 5 4 4 5 4 15 11 7 4 12 29 27 29 28 26 24 25 25 22 23 23 24 28 28 29 29 32 34 36 40 39 40 37
25 19 15 22 15 16 21 21 19 25 25 17 10 13 10 10 7 9 10 9 9 12 12 6 2 11 12 22 24 22 29 24 17 18 19 20 21 23 20 26 30 31 29 33 34 36 40 41 41
10 15 19 21 23 14 14 17 23 24 19 20 16 16 10 8 11 14 9 8 12 12 8 4 5 8 8 14 13 17 22 19 17 13 15 13 17 17 22 23 25 28 31 34 37 35 35 41 41
13 16 13 13 21 20 17 20 12 19 17 12 16 15 11 12 11 11 9 9 10 7 4 1 3 4 13 16 16 9 14 17 12 13 15 15 16 16 15 20 22 24 29 33 36 35 38 36 37
12 10 16 15 16 14 13 13 16 6 19 17 17 16 13 18 15 8 8 9 12 13 14 3 1 2 7 12 17 14 15 16 16 14 13 17 12 14 16 15 17 19 26 30 33 34 32 37 37
15 14 17 9 20 13 14 17 19 13 6 14 16 16 17 16 16 11 11 13 14 14 14 17 10 3 6 9 8 17 15 19 15 14 14 14 14 13 15 14 12 14 19 25 29 26 27 29 30
Wind_Direction
209 229 248 254 247 231 257 255 254 261 359 26 16 267 358 15 30 77 91 106 114 122 141 150 151 160 167 178 181 184 190 200 207 211 205 189 191 187 189 175 168 162 156 153 149 149 144 141 140
213 226 234 276 240 254 256 250 242 218 93 65 60 319 347 31 96 119 104 125 125 135 146 155 149 149 159 166 170 182 193 196 205 209 206 193 183 183 197 191 177 175 162 152 149 144 146 141 141
226 266 250 233 238 246 263 279 338 90 105 129 196 280 207 272 118 148 132 141 138 141 143 158 151 151 160 160 167 173 177 183 191 200 200 187 161 152 171 71 34 261 198 154 153 151 149 148 144
213 230 249 263 256 251 237 261 336 130 129 163 205 174 247 65 106 125 137 148 147 145 172 169 160 156 165 169 166 168 160 160 172 185 191 165 177 169 189 189 205 211 338 183 155 155 154 153 148
241 252 237 252 252 254 270 282 292 304 64 172 229 232 189 122 130 134 142 154 151 152 175 174 174 167 171 174 173 167 153 153 163 169 171 178 183 179 184 178 190 204 320 191 174 167 163 157 153
224 233 250 249 252 252 254 260 223 235 290 247 225 248 182 160 138 138 149 149 151 161 167 180 179 173 176 178 179 175 161 159 161 174 180 185 174 154 164 174 188 187 173 186 183 182 171 163 157
246 253 249 255 266 278 282 311 196 243 232 245 231 233 238 145 120 139 151 151 147 148 166 183 178 177 182 186 184 179 172 171 165 174 188 190 179 154 171 174 179 191 188 186 189 186 174 167 160
237 254 262 265 267 265 272 287 285 213 251 248 273 211 235 122 133 150 159 153 161 160 174 184 185 186 186 189 184 185 179 178 170 184 186 195 180 181 188 176 184 191 186 192 191 188 180 171 163
251 248 253 259 261 268 273 276 239 269 253 260 188 231 110 120 144 164 158 166 165 168 175 180 188 196 195 195 189 187 184 182 179 187 195 196 195 201 173 197 197 190 192 188 189 193 188 177 169
240 246 247 257 274 281 277 277 314 269 238 259 190 225 174 156 179 179 172 172 178 172 180 185 186 195 197 189 203 190 192 188 187 190 195 200 198 209 188 193 187 180 188 185 192 190 191 187 174
245 249 259 260 277 292 297 285 292 266 266 223 258 195 231 225 215 199 186 179 186 187 183 189 188 191 190 192 197 190 185 188 190 189 198 197 191 191 200 189 186 181 182 183 194 190 182 184 181
260 265 262 260 264 279 285 290 276 267 268 275 269 259 206 206 219 209 207 218 184 184 186 190 190 191 190 197 198 195 187 188 190 193 195 194 194 201 188 186 185 184 182 195 195 187 183 186 188
259 266 268 271 266 270 272 275 281 278 266 274 276 273 277 232 210 239 257 226 228 185 179 187 192 193 191 196 201 201 195 191 191 198 197 199 194 196 188 187 181 185 185 190 190 187 185 186 183
285 287 282 286 278 271 265 268 268 255 269 269 267 268 260 259 239 246 246 242 238 218 180 183 188 194 195 190 199 203 201 193 194 190 195 197 196 193 192 190 182 184 196 194 189 183 188 186 179
267 278 270 263 265 270 284 273 252 262 258 253 246 243 253 252 247 231 236 230 220 225 202 181 187 193 198 203 198 199 202 196 197 195 189 200 198 195 195 193 195 198 194 193 184 186 189 189 177
283 277 271 272 270 251 241 258 255 260 249 251 244 239 237 234 235 234 234 230 222 221 200 186 183 190 198 200 200 200 201 200 199 201 196 201 204 203 202 209 206 194 191 192 189 187 190 193 195
257 261 265 267 261 266 249 250 246 248 254 258 250 242 223 232 236 233 233 228 230 217 222 193 190 190 193 202 200 206 207 206 195 202 198 196 206 208 208 205 199 188 191 197 197 196 190 189 198
269 264 266 274 271 283 274 264 259 248 268 262 261 260 239 232 233 234 230 235 226 220 227 193 189 188 189 191 187 195 205 200 204 195 199 193 200 205 207 205 199 191 187 193 190 189 190 188 189
258 259 262 264 273 265 275 293 276 262 240 257 266 233 253 262 246 218 221 220 222 222 212 183 176 188 183 189 189 192 199 191 201 205 208 201 202 206 205 206 202 198 188 187 191 189 187 196 199
273 271 269 270 248 264 279 274 282 285 267 271 261 259 226 239 258 241 216 217 222 224 202 180 189 185 186 191 195 196 194 181 202 211 208 203 203 202 202 201 199 198 191 180 179 180 180 194 191
275 276 272 275 283 251 258 268 254 262 275 264 268 273 275 248 221 233 243 235 226 217 177 180 190 204 194 194 191 189 185 198 200 206 210 209 206 207 207 197 198 196 191 184 188 189 184 189 199
283 277 277 275 267 260 241 261 258 253 252 245 240 238 248 255 247 213 217 224 224 209 185 179 195 207 199 191 179 177 186 197 196 189 198 208 213 210 199 194 192 197 195 195 190 192 191 190 197
274 285 292 280 271 270 245 251 247 253 250 246 249 228 227 229 234 233 226 227 212 204 190 189 194 207 194 180 183 189 207 199 199 202 203 210 206 210 210 208 203 198 197 195 201 196 189 189 198
319 290 280 282 272 255 241 235 244 240 254 263 246 207 207 176 109 60 327 264 252 95 170 172 181 202 176 174 184 195 209 189 199 201 189 191 204 203 207 210 204 203 206 207 211 198 192 190 193
303 295 256 257 247 244 237 240 238 265 243 260 245 115 93 84 93 124 200 137 219 110 104 104 190 234 173 178 191 205 209 206 198 188 192 182 191 200 209 211 210 203 209 209 206 203 195 197 193
284 248 241 246 242 241 244 245 241 236 261 275 104 101 129 144 108 75 52 56 41 66 106 116 223 257 168 182 193 207 207 218 203 187 196 192 209 212 198 212 207 209 214 215 211 204 201 198 196
289 231 251 253 267 276 255 229 241 255 237 240 133 136 152 125 114 100 75 60 42 27 39 114 225 256 222 189 198 213 203 209 205 205 211 202 195 201 209 211 210 214 219 218 214 211 208 203 200
311 296 253 236 243 255 273 258 258 214 240 202 140 145 116 103 77 71 72 52 45 42 59 350 258 253 213 217 203 215 201 204 199 204 212 217 200 190 191 207 213 216 224 224 216 211 206 198 194
332 300 250 250 233 253 251 264 250 207 202 167 157 145 144 126 110 108 91 74 52 37 22 18 325 249 209 221 220 227 205 208 211 203 213 209 199 201 209 212 216 222 226 222 213 211 204 202 196
334 3 308 241 233 258 240 260 276 350 265 145 171 156 134 117 110 103 86 72 54 42 35 28 10 300 237 225 254 204 215 199 206 206 214 193 202 201 211 215 214 220 222 221 210 204 196 197 196
Height
765 767 768 764 777 761 756 734 700 697 698 689 691 701 706 702 720 746 720 724 728 730 737 741 743 745 747 750 753 756 757 760 764 767 771 773 777 781 783 787 788 791 792 795 797 799 799 802 804
765 765 764 758 774 769 746 706 703 688 690 693 699 703 710 717 706 715 723 727 731 732 737 740 743 745 748 751 754 757 760 762 765 768 772 775 779 784 788 791 794 794 795 796 800 800 803 803 807
764 764 763 762 759 762 745 702 692 689 692 702 711 703 707 713 704 711 720 727 731 735 738 739 742 745 748 751 754 757 760 763 767 770 773 777 781 782 787 790 795 796 798 797 801 801 804 806 808
763 760 757 766 756 729 723 704 692 694 696 698 703 715 703 703 707 714 722 727 731 735 738 740 742 745 748 751 754 757 760 764 769 772 775 778 779 783 782 788 795 796 783 804 804 803 806 809 811
762 750 762 756 745 727 710 696 689 699 699 703 703 713 710 704 710 716 722 727 731 735 736 740 741 744 746 750 754 757 761 764 769 773 776 777 779 781 782 787 790 796 799 805 809 806 808 809 812
759 751 764 756 738 717 703 690 691 701 702 702 709 709 707 703 709 716 721 727 732 733 737 740 742 744 746 749 752 756 760 764 767 772 775 778 781 782 784 786 789 795 800 802 806 808 809 809 812
757 755 754 744 736 722 703 684 698 702 705 707 698 714 705 702 707 715 721 726 733 735 737 741 743 744 746 748 751 754 759 763 767 769 773 777 781 783 787 788 790 796 799 802 805 808 810 811 813
749 751 753 740 737 727 700 690 688 697 705 694 694 712 713 707 710 714 719 725 732 736 738 741 744 745 746 747 750 754 758 762 765 768 772 777 782 783 787 790 792 795 798 801 806 810 810 812 813
741 754 750 744 736 722 700 700 688 692 701 696 694 698 702 709 714 716 718 724 729 734 738 739 743 745 746 748 749 752 756 760 764 767 771 776 781 784 787 790 792 796 800 801 806 810 811 813 815
748 747 738 729 721 715 702 697 696 702 703 702 699 695 700 707 713 714 717 721 726 730 735 737 740 743 746 749 749 750 753 758 762 766 768 774 779 781 785 790 793 797 801 803 807 808 813 815 816
739 738 732 723 716 710 708 701 695 705 708 701 703 698 702 705 707 710 711 715 721 726 730 735 736 739 743 747 749 751 752 755 760 764 767 772 777 780 783 787 792 796 799 802 805 807 811 813 816
743 728 723 720 715 712 713 702 703 704 703 693 692 691 693 698 702 704 706 709 712 717 724 730 734 736 738 742 748 750 751 753 756 761 764 769 774 777 781 784 788 793 796 800 802 805 809 812 817
732 727 720 715 713 712 708 708 708 704 696 694 691 690 692 692 695 700 703 705 707 709 714 720 728 732 735 737 743 748 749 750 753 756 760 765 770 774 779 782 786 790 794 798 800 804 808 811 814
729 724 719 714 711 708 710 708 707 697 700 697 694 691 690 691 693 697 701 702 703 705 709 714 719 725 730 733 738 743 746 748 751 754 756 761 767 771 775 780 782 787 791 795 798 802 806 809 812
725 730 721 717 714 713 708 709 703 694 695 693 691 690 689 688 689 691 696 696 698 701 704 708 713 719 725 728 734 738 742 745 747 751 753 757 762 767 772 776 780 783 788 793 797 802 806 808 810
740 734 734 715 707 702 710 706 696 689 690 687 682 681 680 680 682 684 687 688 690 693 696 699 705 711 719 723 728 734 738 742 743 748 751 755 759 763 768 774 777 781 785 789 794 798 803 808 810
734 740 730 713 700 696 696 691 686 679 681 678 670 664 669 671 671 673 675 678 681 684 689 693 697 704 712 718 723 730 735 739 741 743 748 751 756 759 764 769 773 778 782 786 790 795 800 805 809
735 732 717 714 703 693 690 682 672 674 674 670 664 660 661 663 661 664 667 671 673 677 683 686 691 697 705 714 720 726 731 735 738 739 743 746 751 755 759 765 770 774 778 783 787 792 798 802 807
719 720 716 702 698 697 692 689 675 667 668 667 663 661 661 658 653 656 660 664 668 672 677 681 687 694 701 708 713 719 724 728 734 736 739 743 746 751 754 760 765 770 774 778 783 789 795 801 805
713 710 703 688 688 698 694 691 678 670 663 660 658 656 655 657 653 652 655 661 665 669 673 677 683 689 696 702 708 715 720 724 729 735 736 739 743 746 750 754 759 765 770 774 780 784 791 797 801
713 715 702 699 689 682 690 694 683 670 663 657 653 651 650 648 650 651 654 658 661 664 668 673 680 686 693 698 704 710 717 722 726 730 732 733 738 741 745 749 754 759 764 769 774 779 784 789 795
723 708 699 695 693 700 683 698 678 665 659 652 646 645 647 643 642 644 649 653 655 658 663 669 676 682 688 693 698 704 711 714 718 722 727 730 734 737 741 744 749 754 760 764 769 774 777 785 790
715 702 698 693 690 684 682 690 667 659 655 643 630 627 634 636 636 638 641 646 650 655 659 665 671 678 682 688 695 702 708 710 716 720 723 728 730 733 736 740 744 749 754 759 764 769 773 779 784
717 707 704 695 688 690 674 677 661 661 647 630 617 615 620 624 631 635 639 643 648 652 655 662 668 674 677 684 692 698 703 706 711 715 717 722 726 729 732 735 738 743 748 753 758 763 766 771 777
721 721 711 708 695 682 663 669 657 640 633 625 618 621 626 631 636 640 644 647 651 656 662 667 671 674 676 682 688 694 698 702 705 709 713 717 720 724 727 730 734 737 742 747 752 757 759 766 770
729 714 705 710 690 679 656 667 643 635 621 618 612 622 628 636 640 646 650 652 657 662 667 672 675 676 679 680 685 691 695 699 701 706 710 712 716 719 723 726 729 732 737 742 746 749 751 757 763
700 693 688 688 677 676 652 641 629 620 618 616 620 629 636 638 643 652 662 665 668 669 671 675 678 678 679 680 685 688 692 697 699 704 707 710 713 716 719 723 725 728 732 736 740 741 745 750 754
698 683 691 683 693 689 668 646 632 622 618 613 621 630 636 643 649 660 669 672 673 675 676 677 678 679 680 681 684 687 690 695 699 703 707 709 711 713 716 719 722 724 727 730 733 735 738 741 746
712 704 680 677 672 680 679 653 611 610 608 612 618 625 635 627 653 670 673 676 679 679 679 679 679 680 681 682 684 687 690 694 698 701 705 707 709 713 714 715 717 719 722 724 726 728 731 736 740
694 706 692 672 677 660 659 650 609 607 603 608 616 622 631 644 653 668 675 679 682 684 684 682 680 681 682 684 685 685 689 692 696 700 703 705 708 710 711 713 713 714 717 719 721 723 726 730 735